Location: Banios
(43.0451°N, 0.2335°E)
Time: 08:44:46
(UTC+00:00)

A-11 Canister half - Pass Details

Date: 21 May 2021
Orbit: 1527 x 1681 km, 47.3° (Epoch: 22 June)

Event Time Altitude Azimuth Distance (km) Brightness Sun altitude
Rises 04:10:43 0° 177° (S) 4,664 11.2 -3.9°
Reaches altitude 10° 04:15:22 10° 157° (SSE) 3,696 10.9 -3.1°
Maximum altitude 04:20:20 16° 124° (ESE) 3,278 11.1 -2.4°
Drops below altitude 10° 04:25:21 10° 91° (E) 3,747 12.2 -1.6°
Sets 04:30:04 0° 71° (ENE) 4,764 13.9 -0.8°
